Time,TemperatureF,DewpointF,PressureIn,WindDirection,WindDirectionDegrees,WindSpeedMPH,WindSpeedGustMPH,Humidity,HourlyPrecipIn,Conditions,Clouds,dailyrainin,SoftwareType,DateUTC
2013-04-02 00:00:00,22.7,17.7,29.88,WNW,283,5.0,8.0,81,0.00,,,0.11,Wunderground v.1.15,2013-04-02 04:00:00,
2013-04-02 00:01:00,22.7,17.7,29.88,West,266,5.0,8.0,81,0.00,,,0.11,Wunderground v.1.15,2013-04-02 04:01:00,
2013-04-02 00:02:00,22.7,17.7,29.88,SW,236,5.0,8.0,81,0.00,,,0.00,Wunderground v.1.15,2013-04-02 04:02:00,
2013-04-02 00:05:00,22.6,17.9,29.88,NNW,328,5.0,9.0,82,0.00,,,0.00,Wunderground v.1.15,2013-04-02 04:05:00,
2013-04-02 00:10:00,22.4,17.7,29.88,West,276,5.0,8.0,82,0.00,,,0.00,Wunderground v.1.15,2013-04-02 04:10:00,
2013-04-02 00:15:00,22.3,17.6,29.88,West,276,5.0,8.0,82,0.00,,,0.00,Wunderground v.1.15,2013-04-02 04:15:00,
2013-04-02 00:20:00,22.1,17.4,29.89,NW,312,4.0,4.0,82,0.00,,,0.00,Wunderground v.1.15,2013-04-02 04:20:00,
2013-04-02 00:25:00,22.0,17.3,29.89,WNW,288,4.0,8.0,82,0.00,,,0.00,Wunderground v.1.15,2013-04-02 04:25:00,
2013-04-02 00:31:00,21.8,17.4,29.88,West,276,3.0,8.0,83,0.00,,,0.00,Wunderground v.1.15,2013-04-02 04:31:00,
2013-04-02 00:36:00,21.6,17.5,29.88,West,262,2.0,8.0,84,0.00,,,0.00,Wunderground v.1.15,2013-04-02 04:36:00,
2013-04-02 00:43:00,21.4,17.6,29.89,South,183,2.0,8.0,85,0.00,,,0.00,Wunderground v.1.15,2013-04-02 04:43:00,
2013-04-02 00:48:00,21.3,17.8,29.89,SW,219,2.0,8.0,86,0.00,,,0.00,Wunderground v.1.15,2013-04-02 04:48:00,
2013-04-02 00:53:00,21.2,17.9,29.89,SSW,211,2.0,8.0,87,0.00,,,0.00,Wunderground v.1.15,2013-04-02 04:53:00,
2013-04-02 00:59:00,21.1,17.8,29.88,WSW,253,2.0,8.0,87,0.00,,,0.00,Wunderground v.1.15,2013-04-02 04:59:00,
2013-04-02 01:04:00,21.0,18.0,29.88,West,276,2.0,8.0,88,0.00,,,0.00,Wunderground v.1.15,2013-04-02 05:04:00,
2013-04-02 01:09:00,21.1,18.1,29.89,SW,218,3.0,8.0,88,0.00,,,0.00,Wunderground v.1.15,2013-04-02 05:09:00,
2013-04-02 01:14:00,21.1,17.8,29.88,SW,218,3.0,8.0,87,0.00,,,0.00,Wunderground v.1.15,2013-04-02 05:14:00,
2013-04-02 01:19:00,21.1,17.6,29.88,West,274,3.0,8.0,86,0.00,,,0.00,Wunderground v.1.15,2013-04-02 05:19:00,
2013-04-02 01:25:00,21.2,17.1,29.89,WNW,282,4.0,8.0,84,0.00,,,0.00,Wunderground v.1.15,2013-04-02 05:25:00,
2013-04-02 01:30:00,21.4,17.0,29.89,WSW,256,4.0,8.0,83,0.00,,,0.00,Wunderground v.1.15,2013-04-02 05:30:00,
2013-04-02 01:35:00,21.5,16.9,29.88,WNW,293,4.0,8.0,82,0.00,,,0.00,Wunderground v.1.15,2013-04-02 05:35:00,
2013-04-02 01:40:00,21.5,16.6,29.89,WSW,242,3.0,8.0,81,0.00,,,0.00,Wunderground v.1.15,2013-04-02 05:40:00,
2013-04-02 01:45:00,21.5,16.6,29.89,West,267,3.0,8.0,81,0.00,,,0.00,Wunderground v.1.15,2013-04-02 05:45:00,
2013-04-02 01:50:00,21.5,16.3,29.89,West,278,4.0,4.0,80,0.00,,,0.00,Wunderground v.1.15,2013-04-02 05:50:00,
2013-04-02 01:56:00,21.6,16.4,29.89,West,271,4.0,8.0,80,0.00,,,0.00,Wunderground v.1.15,2013-04-02 05:56:00,
2013-04-02 02:02:00,21.7,16.5,29.89,WNW,282,5.0,8.0,80,0.00,,,0.00,Wunderground v.1.15,2013-04-02 06:02:00,
2013-04-02 02:07:00,21.8,16.6,29.89,NW,307,5.0,8.0,80,0.00,,,0.00,Wunderground v.1.15,2013-04-02 06:07:00,
2013-04-02 02:12:00,21.9,16.7,29.89,NW,317,4.0,8.0,80,0.00,,,0.00,Wunderground v.1.15,2013-04-02 06:12:00,
2013-04-02 02:18:00,21.9,16.7,29.89,WSW,239,4.0,8.0,80,0.00,,,0.00,Wunderground v.1.15,2013-04-02 06:18:00,
2013-04-02 02:23:00,21.9,16.4,29.89,WSW,245,4.0,8.0,79,0.00,,,0.00,Wunderground v.1.15,2013-04-02 06:23:00,
2013-04-02 02:28:00,21.9,16.4,29.89,North,352,5.0,12.0,79,0.00,,,0.00,Wunderground v.1.15,2013-04-02 06:28:00,
2013-04-02 02:33:00,21.8,16.3,29.88,WNW,298,6.0,10.0,79,0.00,,,0.00,Wunderground v.1.15,2013-04-02 06:33:00,
2013-04-02 02:38:00,21.7,16.5,29.88,NW,304,6.0,10.0,80,0.00,,,0.00,Wunderground v.1.15,2013-04-02 06:38:00,
2013-04-02 02:44:00,21.6,16.4,29.88,West,281,5.0,8.0,80,0.00,,,0.00,Wunderground v.1.15,2013-04-02 06:44:00,
2013-04-02 02:49:00,21.4,16.2,29.88,WNW,291,5.0,8.0,80,0.00,,,0.00,Wunderground v.1.15,2013-04-02 06:49:00,
2013-04-02 02:54:00,21.2,16.0,29.88,WSW,242,4.0,8.0,80,0.00,,,0.00,Wunderground v.1.15,2013-04-02 06:54:00,
2013-04-02 02:59:00,21.0,15.8,29.88,SSW,207,4.0,8.0,80,0.00,,,0.00,Wunderground v.1.15,2013-04-02 06:59:00,
2013-04-02 03:04:00,21.0,15.8,29.88,WNW,284,4.0,9.0,80,0.00,,,0.00,Wunderground v.1.15,2013-04-02 07:04:00,
2013-04-02 03:10:00,21.0,15.8,29.88,WNW,284,5.0,8.0,80,0.00,,,0.00,Wunderground v.1.15,2013-04-02 07:10:00,
2013-04-02 03:15:00,20.9,15.7,29.88,NW,312,4.0,10.0,80,0.00,,,0.00,Wunderground v.1.15,2013-04-02 07:15:00,
2013-04-02 03:20:00,20.8,15.6,29.88,West,270,4.0,8.0,80,0.00,,,0.00,Wunderground v.1.15,2013-04-02 07:20:00,
2013-04-02 03:25:00,20.6,15.4,29.88,WNW,296,4.0,8.0,80,0.00,,,0.00,Wunderground v.1.15,2013-04-02 07:25:00,
2013-04-02 03:30:00,20.6,15.4,29.88,West,260,3.0,8.0,80,0.00,,,0.00,Wunderground v.1.15,2013-04-02 07:30:00,
2013-04-02 03:35:00,20.4,15.2,29.88,West,262,3.0,8.0,80,0.00,,,0.00,Wunderground v.1.15,2013-04-02 07:35:00,
2013-04-02 03:41:00,20.2,15.0,29.87,WNW,298,3.0,8.0,80,0.00,,,0.00,Wunderground v.1.15,2013-04-02 07:41:00,
2013-04-02 03:46:00,20.2,15.0,29.87,West,278,3.0,8.0,80,0.00,,,0.00,Wunderground v.1.15,2013-04-02 07:46:00,
2013-04-02 03:51:00,20.2,15.0,29.87,WSW,255,3.0,8.0,80,0.00,,,0.00,Wunderground v.1.15,2013-04-02 07:51:00,
2013-04-02 03:57:00,20.2,15.0,29.87,SW,217,4.0,8.0,80,0.00,,,0.00,Wunderground v.1.15,2013-04-02 07:57:00,
2013-04-02 04:02:00,20.2,15.0,29.87,NW,314,4.0,11.0,80,0.00,,,0.00,Wunderground v.1.15,2013-04-02 08:02:00,
2013-04-02 04:07:00,20.2,14.7,29.88,WNW,285,4.0,11.0,79,0.00,,,0.00,Wunderground v.1.15,2013-04-02 08:07:00,
2013-04-02 04:13:00,20.2,14.7,29.88,WSW,254,4.0,8.0,79,0.00,,,0.00,Wunderground v.1.15,2013-04-02 08:13:00,
2013-04-02 04:18:00,20.3,14.8,29.88,WNW,287,3.0,8.0,79,0.00,,,0.00,Wunderground v.1.15,2013-04-02 08:18:00,
2013-04-02 04:24:00,20.3,14.8,29.88,NW,316,4.0,8.0,79,0.00,,,0.00,Wunderground v.1.15,2013-04-02 08:24:00,
2013-04-02 04:29:00,20.3,14.8,29.88,West,281,4.0,13.0,79,0.00,,,0.00,Wunderground v.1.15,2013-04-02 08:29:00,
2013-04-02 04:34:00,20.4,14.6,29.88,West,272,5.0,9.0,78,0.00,,,0.00,Wunderground v.1.15,2013-04-02 08:34:00,
2013-04-02 04:39:00,20.2,14.4,29.88,West,266,5.0,9.0,78,0.00,,,0.00,Wunderground v.1.15,2013-04-02 08:39:00,
2013-04-02 04:44:00,20.2,14.7,29.88,NW,315,4.0,8.0,79,0.00,,,0.00,Wunderground v.1.15,2013-04-02 08:44:00,
2013-04-02 04:49:00,20.1,14.6,29.88,SW,224,4.0,8.0,79,0.00,,,0.00,Wunderground v.1.15,2013-04-02 08:49:00,
2013-04-02 04:54:00,20.1,14.6,29.89,West,270,4.0,8.0,79,0.00,,,0.00,Wunderground v.1.15,2013-04-02 08:54:00,
2013-04-02 05:00:00,20.2,14.7,29.89,WSW,253,5.0,5.0,79,0.00,,,0.00,Wunderground v.1.15,2013-04-02 09:00:00,
2013-04-02 05:05:00,20.1,14.6,29.89,WNW,288,5.0,8.0,79,0.00,,,0.00,Wunderground v.1.15,2013-04-02 09:05:00,
2013-04-02 05:10:00,20.0,14.5,29.89,West,280,5.0,5.0,79,0.00,,,0.00,Wunderground v.1.15,2013-04-02 09:10:00,
2013-04-02 05:16:00,20.0,14.5,29.89,WSW,243,5.0,8.0,79,0.00,,,0.00,Wunderground v.1.15,2013-04-02 09:16:00,
2013-04-02 05:22:00,20.0,14.5,29.90,West,280,4.0,8.0,79,0.00,,,0.00,Wunderground v.1.15,2013-04-02 09:22:00,
2013-04-02 05:27:00,20.0,14.5,29.90,WNW,282,4.0,8.0,79,0.00,,,0.00,Wunderground v.1.15,2013-04-02 09:27:00,
2013-04-02 05:32:00,20.1,14.6,29.90,West,269,4.0,8.0,79,0.00,,,0.00,Wunderground v.1.15,2013-04-02 09:32:00,
2013-04-02 05:37:00,20.0,14.5,29.90,WNW,290,5.0,8.0,79,0.00,,,0.00,Wunderground v.1.15,2013-04-02 09:37:00,
2013-04-02 05:42:00,20.0,14.5,29.90,West,281,4.0,8.0,79,0.00,,,0.00,Wunderground v.1.15,2013-04-02 09:42:00,
2013-04-02 05:47:00,19.9,14.4,29.90,West,262,4.0,8.0,79,0.00,,,0.00,Wunderground v.1.15,2013-04-02 09:47:00,
2013-04-02 05:53:00,19.8,14.3,29.90,SW,231,4.0,9.0,79,0.00,,,0.00,Wunderground v.1.15,2013-04-02 09:53:00,
2013-04-02 05:58:00,19.8,14.0,29.91,NW,323,5.0,9.0,78,0.00,,,0.00,Wunderground v.1.15,2013-04-02 09:58:00,
2013-04-02 06:04:00,19.7,14.0,29.91,WSW,257,5.0,8.0,78,0.00,,,0.00,Wunderground v.1.15,2013-04-02 10:04:00,
2013-04-02 06:09:00,19.6,13.9,29.91,WNW,290,5.0,8.0,78,0.00,,,0.00,Wunderground v.1.15,2013-04-02 10:09:00,
2013-04-02 06:14:00,19.5,13.8,29.91,WSW,242,5.0,12.0,78,0.00,,,0.00,Wunderground v.1.15,2013-04-02 10:14:00,
2013-04-02 06:19:00,19.4,13.7,29.91,WSW,255,5.0,12.0,78,0.00,,,0.00,Wunderground v.1.15,2013-04-02 10:19:00,
2013-04-02 06:24:00,19.3,13.6,29.91,WSW,243,5.0,8.0,78,0.00,,,0.00,Wunderground v.1.15,2013-04-02 10:24:00,
2013-04-02 06:29:00,19.3,13.6,29.91,West,269,5.0,8.0,78,0.00,,,0.00,Wunderground v.1.15,2013-04-02 10:29:00,
2013-04-02 06:34:00,19.2,13.5,29.92,West,276,5.0,8.0,78,0.00,,,0.00,Wunderground v.1.15,2013-04-02 10:34:00,
2013-04-02 06:40:00,19.2,13.2,29.92,West,259,4.0,8.0,77,0.00,,,0.00,Wunderground v.1.15,2013-04-02 10:40:00,
2013-04-02 06:46:00,19.1,13.1,29.92,WNW,283,4.0,8.0,77,0.00,,,0.00,Wunderground v.1.15,2013-04-02 10:46:00,
2013-04-02 06:51:00,19.0,13.0,29.92,SW,228,3.0,8.0,77,0.00,,,0.00,Wunderground v.1.15,2013-04-02 10:51:00,
2013-04-02 06:56:00,19.0,13.3,29.92,WSW,245,4.0,8.0,78,0.00,,,0.00,Wunderground v.1.15,2013-04-02 10:56:00,
2013-04-02 07:01:00,19.2,13.5,29.92,SW,220,4.0,5.0,78,0.00,,,0.00,Wunderground v.1.15,2013-04-02 11:01:00,
2013-04-02 07:06:00,19.4,13.7,29.92,West,280,5.0,14.0,78,0.00,,,0.00,Wunderground v.1.15,2013-04-02 11:06:00,
2013-04-02 07:12:00,19.5,14.0,29.92,WNW,299,6.0,14.0,79,0.00,,,0.00,Wunderground v.1.15,2013-04-02 11:12:00,
2013-04-02 07:17:00,19.6,14.1,29.92,West,262,5.0,14.0,79,0.00,,,0.00,Wunderground v.1.15,2013-04-02 11:17:00,
2013-04-02 07:22:00,19.6,14.1,29.93,WSW,256,5.0,14.0,79,0.00,,,0.00,Wunderground v.1.15,2013-04-02 11:22:00,
2013-04-02 07:27:00,19.6,13.6,29.93,WNW,291,5.0,14.0,77,0.00,,,0.00,Wunderground v.1.15,2013-04-02 11:27:00,
2013-04-02 07:32:00,19.7,13.7,29.93,West,262,6.0,14.0,77,0.00,,,0.00,Wunderground v.1.15,2013-04-02 11:32:00,
2013-04-02 07:38:00,19.7,13.7,29.93,SSW,208,5.0,14.0,77,0.00,,,0.00,Wunderground v.1.15,2013-04-02 11:38:00,
2013-04-02 07:43:00,19.7,13.7,29.93,SW,218,4.0,14.0,77,0.00,,,0.00,Wunderground v.1.15,2013-04-02 11:43:00,
2013-04-02 07:48:00,19.8,13.5,29.93,SSW,198,4.0,14.0,76,0.00,,,0.00,Wunderground v.1.15,2013-04-02 11:48:00,
2013-04-02 07:53:00,20.0,13.9,29.94,West,267,5.0,14.0,77,0.00,,,0.00,Wunderground v.1.15,2013-04-02 11:53:00,
2013-04-02 07:58:00,20.1,14.0,29.94,West,259,5.0,14.0,77,0.00,,,0.00,Wunderground v.1.15,2013-04-02 11:58:00,
2013-04-02 08:03:00,20.1,14.0,29.94,West,264,5.0,14.0,77,0.00,,,0.00,Wunderground v.1.15,2013-04-02 12:03:00,
2013-04-02 08:09:00,20.4,14.3,29.94,NW,307,5.0,14.0,77,0.00,,,0.00,Wunderground v.1.15,2013-04-02 12:09:00,
2013-04-02 08:14:00,20.5,14.7,29.94,SSW,195,5.0,14.0,78,0.00,,,0.00,Wunderground v.1.15,2013-04-02 12:14:00,
2013-04-02 08:19:00,20.6,15.1,29.94,WNW,282,5.0,14.0,79,0.00,,,0.00,Wunderground v.1.15,2013-04-02 12:19:00,
2013-04-02 08:25:00,20.5,15.0,29.95,West,279,5.0,14.0,79,0.00,,,0.00,Wunderground v.1.15,2013-04-02 12:25:00,
2013-04-02 08:30:00,20.6,14.8,29.95,SW,216,5.0,14.0,78,0.00,,,0.00,Wunderground v.1.15,2013-04-02 12:30:00,
2013-04-02 08:35:00,20.6,14.8,29.95,West,266,5.0,14.0,78,0.00,,,0.00,Wunderground v.1.15,2013-04-02 12:35:00,
2013-04-02 08:40:00,20.8,15.0,29.95,NW,323,5.0,14.0,78,0.00,,,0.00,Wunderground v.1.15,2013-04-02 12:40:00,
2013-04-02 08:45:00,20.9,15.1,29.95,WSW,249,5.0,14.0,78,0.00,,,0.00,Wunderground v.1.15,2013-04-02 12:45:00,
2013-04-02 08:51:00,21.1,15.6,29.96,WSW,243,5.0,14.0,79,0.00,,,0.00,Wunderground v.1.15,2013-04-02 12:51:00,
2013-04-02 08:57:00,21.1,15.0,29.96,SW,228,5.0,14.0,77,0.00,,,0.00,Wunderground v.1.15,2013-04-02 12:57:00,
2013-04-02 09:03:00,21.0,14.9,29.96,WNW,287,6.0,14.0,77,0.00,,,0.00,Wunderground v.1.15,2013-04-02 13:03:00,
2013-04-02 09:08:00,21.6,15.2,29.96,NW,314,5.0,14.0,76,0.00,,,0.00,Wunderground v.1.15,2013-04-02 13:08:00,
2013-04-02 09:13:00,22.0,15.0,29.96,WNW,287,5.0,14.0,74,0.00,,,0.00,Wunderground v.1.15,2013-04-02 13:13:00,
2013-04-02 09:18:00,22.2,14.9,29.96,NW,307,6.0,14.0,73,0.00,,,0.00,Wunderground v.1.15,2013-04-02 13:18:00,
2013-04-02 09:24:00,22.3,14.6,29.96,SSW,211,6.0,14.0,72,0.00,,,0.00,Wunderground v.1.15,2013-04-02 13:24:00,
2013-04-02 09:29:00,21.9,14.6,29.96,SW,218,6.0,14.0,73,0.00,,,0.00,Wunderground v.1.15,2013-04-02 13:29:00,
2013-04-02 09:34:00,22.0,13.7,29.97,West,269,7.0,14.0,70,0.00,,,0.00,Wunderground v.1.15,2013-04-02 13:34:00,
2013-04-02 09:39:00,22.7,14.1,29.96,WSW,240,7.0,16.0,69,0.00,,,0.00,Wunderground v.1.15,2013-04-02 13:39:00,
2013-04-02 09:44:00,23.0,14.0,29.97,West,271,6.0,14.0,68,0.00,,,0.00,Wunderground v.1.15,2013-04-02 13:44:00,
2013-04-02 09:50:00,22.8,14.1,29.97,West,278,6.0,14.0,69,0.00,,,0.00,Wunderground v.1.15,2013-04-02 13:50:00,
2013-04-02 09:55:00,22.5,13.9,29.97,West,276,7.0,14.0,69,0.00,,,0.00,Wunderground v.1.15,2013-04-02 13:55:00,
2013-04-02 10:00:00,22.5,12.8,29.96,NW,309,8.0,14.0,66,0.00,,,0.00,Wunderground v.1.15,2013-04-02 14:00:00,
2013-04-02 10:05:00,22.9,13.6,29.97,NW,309,8.0,14.0,67,0.00,,,0.00,Wunderground v.1.15,2013-04-02 14:05:00,
2013-04-02 10:10:00,22.9,14.2,29.97,WSW,240,7.0,14.0,69,0.00,,,0.00,Wunderground v.1.15,2013-04-02 14:10:00,
2013-04-02 10:17:00,23.1,14.1,29.97,West,264,7.0,14.0,68,0.00,,,0.00,Wunderground v.1.15,2013-04-02 14:17:00,
2013-04-02 10:22:00,23.4,14.7,29.97,SW,226,8.0,9.0,69,0.00,,,0.00,Wunderground v.1.15,2013-04-02 14:22:00,
2013-04-02 10:27:00,23.5,13.8,29.97,SSW,208,7.0,14.0,66,0.00,,,0.00,Wunderground v.1.15,2013-04-02 14:27:00,
2013-04-02 10:33:00,23.2,14.5,29.98,West,266,7.0,14.0,69,0.00,,,0.00,Wunderground v.1.15,2013-04-02 14:33:00,
2013-04-02 10:38:00,24.0,13.9,29.97,WNW,284,7.0,14.0,65,0.00,,,0.00,Wunderground v.1.15,2013-04-02 14:38:00,
2013-04-02 10:43:00,24.7,13.9,29.97,NW,325,7.0,14.0,63,0.00,,,0.00,Wunderground v.1.15,2013-04-02 14:43:00,
2013-04-02 10:48:00,24.6,14.1,29.98,South,177,6.0,14.0,64,0.00,,,0.00,Wunderground v.1.15,2013-04-02 14:48:00,
2013-04-02 10:53:00,24.7,12.8,29.97,WSW,239,6.0,14.0,60,0.00,,,0.00,Wunderground v.1.15,2013-04-02 14:53:00,
2013-04-02 10:58:00,24.4,13.2,29.98,WSW,247,7.0,14.0,62,0.00,,,0.00,Wunderground v.1.15,2013-04-02 14:58:00,
2013-04-02 11:03:00,23.9,14.2,29.98,WNW,290,7.0,14.0,66,0.00,,,0.00,Wunderground v.1.15,2013-04-02 15:03:00,
2013-04-02 11:09:00,24.7,13.9,29.98,WNW,291,8.0,14.0,63,0.00,,,0.00,Wunderground v.1.15,2013-04-02 15:09:00,
2013-04-02 11:14:00,25.4,13.1,29.98,WNW,297,7.0,14.0,59,0.00,,,0.00,Wunderground v.1.15,2013-04-02 15:14:00,
2013-04-02 11:19:00,25.7,14.1,29.98,West,277,7.0,14.0,61,0.00,,,0.00,Wunderground v.1.15,2013-04-02 15:19:00,
2013-04-02 11:24:00,25.7,13.7,29.98,NW,305,7.0,14.0,60,0.00,,,0.00,Wunderground v.1.15,2013-04-02 15:24:00,
2013-04-02 11:29:00,25.8,13.4,29.98,WNW,288,7.0,19.0,59,0.00,,,0.00,Wunderground v.1.15,2013-04-02 15:29:00,
2013-04-02 11:34:00,25.6,13.2,29.99,WSW,252,8.0,15.0,59,0.00,,,0.00,Wunderground v.1.15,2013-04-02 15:34:00,
2013-04-02 11:39:00,25.2,14.7,29.99,WSW,255,8.0,15.0,64,0.00,,,0.00,Wunderground v.1.15,2013-04-02 15:39:00,
2013-04-02 11:45:00,26.1,15.2,29.98,SW,218,7.0,14.0,63,0.00,,,0.00,Wunderground v.1.15,2013-04-02 15:45:00,
2013-04-02 11:50:00,26.5,14.9,29.98,WSW,247,7.0,7.0,61,0.00,,,0.00,Wunderground v.1.15,2013-04-02 15:50:00,
2013-04-02 11:56:00,26.5,14.9,29.98,WNW,286,7.0,14.0,61,0.00,,,0.00,Wunderground v.1.15,2013-04-02 15:56:00,
2013-04-02 12:02:00,26.2,13.0,29.97,WSW,255,7.0,14.0,57,0.00,,,0.00,Wunderground v.1.15,2013-04-02 16:02:00,
2013-04-02 12:07:00,25.3,13.7,29.99,West,274,9.0,16.0,61,0.00,,,0.00,Wunderground v.1.15,2013-04-02 16:07:00,
2013-04-02 12:13:00,25.1,14.3,29.99,North,352,8.0,14.0,63,0.00,,,0.00,Wunderground v.1.15,2013-04-02 16:13:00,
2013-04-02 12:18:00,26.0,14.4,29.98,SE,139,6.0,14.0,61,0.00,,,0.00,Wunderground v.1.15,2013-04-02 16:18:00,
2013-04-02 12:24:00,26.2,15.7,29.98,SW,226,5.0,14.0,64,0.00,,,0.00,Wunderground v.1.15,2013-04-02 16:24:00,
2013-04-02 12:29:00,26.7,15.8,29.99,West,268,7.0,14.0,63,0.00,,,0.00,Wunderground v.1.15,2013-04-02 16:29:00,
2013-04-02 12:34:00,26.1,14.1,29.98,WNW,286,9.0,17.0,60,0.00,,,0.00,Wunderground v.1.15,2013-04-02 16:34:00,
2013-04-02 12:40:00,26.4,15.9,29.98,West,267,10.0,17.0,64,0.00,,,0.00,Wunderground v.1.15,2013-04-02 16:40:00,
2013-04-02 12:45:00,26.7,13.9,29.98,West,269,9.0,14.0,58,0.00,,,0.00,Wunderground v.1.15,2013-04-02 16:45:00,
2013-04-02 12:50:00,26.7,14.3,29.98,SSW,207,9.0,9.0,59,0.00,,,0.00,Wunderground v.1.15,2013-04-02 16:50:00,
2013-04-02 12:55:00,26.1,15.9,29.98,NNW,342,8.0,15.0,65,0.00,,,0.00,Wunderground v.1.15,2013-04-02 16:55:00,
2013-04-02 13:00:00,25.1,13.9,29.98,West,264,10.0,10.0,62,0.00,,,0.00,Wunderground v.1.15,2013-04-02 17:00:00,
2013-04-02 13:05:00,25.8,15.6,29.98,West,271,8.0,15.0,65,0.00,,,0.00,Wunderground v.1.15,2013-04-02 17:05:00,
2013-04-02 13:10:00,27.0,16.1,29.97,WSW,257,7.0,14.0,63,0.00,,,0.00,Wunderground v.1.15,2013-04-02 17:10:00,
2013-04-02 13:15:00,26.7,13.9,29.97,NNW,345,7.0,14.0,58,0.00,,,0.00,Wunderground v.1.15,2013-04-02 17:15:00,
2013-04-02 13:22:00,26.9,16.7,29.98,West,280,6.0,14.0,65,0.00,,,0.00,Wunderground v.1.15,2013-04-02 17:22:00,
2013-04-02 13:27:00,26.9,16.0,29.97,West,280,7.0,16.0,63,0.00,,,0.00,Wunderground v.1.15,2013-04-02 17:27:00,
2013-04-02 13:33:00,27.5,16.2,29.97,NNW,344,7.0,14.0,62,0.00,,,0.00,Wunderground v.1.15,2013-04-02 17:33:00,
2013-04-02 13:38:00,27.5,14.6,29.97,NNW,332,9.0,14.0,58,0.00,,,0.00,Wunderground v.1.15,2013-04-02 17:38:00,
2013-04-02 13:43:00,27.5,14.2,29.97,West,266,9.0,14.0,57,0.00,,,0.00,Wunderground v.1.15,2013-04-02 17:43:00,
2013-04-02 13:49:00,28.1,15.6,29.97,WSW,249,9.0,14.0,59,0.00,,,0.00,Wunderground v.1.15,2013-04-02 17:49:00,
2013-04-02 13:54:00,29.0,15.2,29.97,SE,140,7.0,24.0,56,0.00,,,0.00,Wunderground v.1.15,2013-04-02 17:54:00,
2013-04-02 14:00:00,28.1,16.0,29.98,SW,218,9.0,24.0,60,0.00,,,0.00,Wunderground v.1.15,2013-04-02 18:00:00,
2013-04-02 14:06:00,27.8,17.2,29.98,SW,229,10.0,24.0,64,0.00,,,0.00,Wunderground v.1.15,2013-04-02 18:06:00,
2013-04-02 14:11:00,27.6,15.9,29.97,West,276,8.0,24.0,61,0.00,,,0.00,Wunderground v.1.15,2013-04-02 18:11:00,
2013-04-02 14:17:00,27.7,15.6,29.97,WNW,284,8.0,24.0,60,0.00,,,0.00,Wunderground v.1.15,2013-04-02 18:17:00,
2013-04-02 14:22:00,27.9,16.2,29.98,WNW,292,8.0,24.0,61,0.00,,,0.00,Wunderground v.1.15,2013-04-02 18:22:00,
2013-04-02 14:27:00,28.4,17.8,29.98,WNW,300,8.0,24.0,64,0.00,,,0.00,Wunderground v.1.15,2013-04-02 18:27:00,
2013-04-02 14:32:00,28.0,16.6,29.98,SSW,211,7.0,24.0,62,0.00,,,0.00,Wunderground v.1.15,2013-04-02 18:32:00,
2013-04-02 14:38:00,28.0,17.0,29.98,WNW,300,8.0,24.0,63,0.00,,,0.00,Wunderground v.1.15,2013-04-02 18:38:00,
2013-04-02 14:43:00,27.6,15.9,29.97,NW,307,8.0,24.0,61,0.00,,,0.00,Wunderground v.1.15,2013-04-02 18:43:00,
2013-04-02 14:48:00,28.2,18.6,29.97,NW,310,7.0,24.0,67,0.00,,,0.00,Wunderground v.1.15,2013-04-02 18:48:00,
2013-04-02 14:53:00,27.3,16.7,29.97,WNW,290,7.0,24.0,64,0.00,,,0.00,Wunderground v.1.15,2013-04-02 18:53:00,
2013-04-02 14:59:00,27.6,16.6,29.97,West,278,8.0,24.0,63,0.00,,,0.00,Wunderground v.1.15,2013-04-02 18:59:00,
2013-04-02 15:04:00,28.1,16.7,29.97,NNW,338,8.0,24.0,62,0.00,,,0.00,Wunderground v.1.15,2013-04-02 19:04:00,
2013-04-02 15:09:00,27.8,17.9,29.97,West,278,8.0,24.0,66,0.00,,,0.00,Wunderground v.1.15,2013-04-02 19:09:00,
2013-04-02 15:14:00,27.1,14.7,29.97,NNW,341,8.0,24.0,59,0.00,,,0.00,Wunderground v.1.15,2013-04-02 19:14:00,
2013-04-02 15:19:00,27.7,15.2,29.96,NNW,330,8.0,24.0,59,0.00,,,0.00,Wunderground v.1.15,2013-04-02 19:19:00,
2013-04-02 15:25:00,29.2,15.0,29.96,NW,307,7.0,24.0,55,0.00,,,0.00,Wunderground v.1.15,2013-04-02 19:25:00,
2013-04-02 15:30:00,29.5,14.9,29.96,NW,326,7.0,24.0,54,0.00,,,0.00,Wunderground v.1.15,2013-04-02 19:30:00,
2013-04-02 15:36:00,28.4,13.0,29.97,NW,322,9.0,25.0,52,0.00,,,0.00,Wunderground v.1.15,2013-04-02 19:36:00,
2013-04-02 15:42:00,28.5,14.8,29.96,SSW,212,10.0,24.0,56,0.00,,,0.00,Wunderground v.1.15,2013-04-02 19:42:00,
2013-04-02 15:47:00,29.0,14.0,29.96,NW,312,8.0,24.0,53,0.00,,,0.00,Wunderground v.1.15,2013-04-02 19:47:00,
2013-04-02 15:52:00,29.7,14.2,29.97,WNW,297,8.0,24.0,52,0.00,,,0.00,Wunderground v.1.15,2013-04-02 19:52:00,
2013-04-02 15:57:00,29.8,14.3,29.96,SSW,197,9.0,24.0,52,0.00,,,0.00,Wunderground v.1.15,2013-04-02 19:57:00,
2013-04-02 16:02:00,29.5,13.6,29.96,West,276,9.0,24.0,51,0.00,,,0.00,Wunderground v.1.15,2013-04-02 20:02:00,
2013-04-02 16:07:00,29.9,14.4,29.97,West,264,8.0,24.0,52,0.00,,,0.00,Wunderground v.1.15,2013-04-02 20:07:00,
2013-04-02 16:13:00,29.3,13.4,29.97,WNW,284,8.0,24.0,51,0.00,,,0.00,Wunderground v.1.15,2013-04-02 20:13:00,
2013-04-02 16:18:00,28.7,13.7,29.96,West,275,9.0,24.0,53,0.00,,,0.00,Wunderground v.1.15,2013-04-02 20:18:00,
2013-04-02 16:23:00,28.9,14.7,29.97,WSW,250,7.0,24.0,55,0.00,,,0.00,Wunderground v.1.15,2013-04-02 20:23:00,
2013-04-02 16:28:00,28.9,13.5,29.97,West,266,7.0,24.0,52,0.00,,,0.00,Wunderground v.1.15,2013-04-02 20:28:00,
2013-04-02 16:34:00,29.0,13.6,29.96,NW,308,7.0,24.0,52,0.00,,,0.00,Wunderground v.1.15,2013-04-02 20:34:00,
2013-04-02 16:39:00,28.6,10.9,29.97,West,274,8.0,24.0,47,0.00,,,0.00,Wunderground v.1.15,2013-04-02 20:39:00,
2013-04-02 16:44:00,28.7,12.4,29.97,NW,321,9.0,24.0,50,0.00,,,0.00,Wunderground v.1.15,2013-04-02 20:44:00,
2013-04-02 16:50:00,28.7,13.3,29.97,WSW,251,9.0,24.0,52,0.00,,,0.00,Wunderground v.1.15,2013-04-02 20:50:00,
2013-04-02 16:55:00,28.1,10.9,29.97,WNW,295,9.0,24.0,48,0.00,,,0.00,Wunderground v.1.15,2013-04-02 20:55:00,
2013-04-02 17:02:00,27.7,10.5,29.97,WNW,285,8.0,24.0,48,0.00,,,0.00,Wunderground v.1.15,2013-04-02 21:02:00,
2013-04-02 17:07:00,27.9,12.1,29.97,WSW,246,6.0,24.0,51,0.00,,,0.00,Wunderground v.1.15,2013-04-02 21:07:00,
2013-04-02 17:12:00,28.1,12.7,29.97,WNW,289,7.0,24.0,52,0.00,,,0.00,Wunderground v.1.15,2013-04-02 21:12:00,
2013-04-02 17:18:00,28.8,13.4,29.98,WNW,297,7.0,24.0,52,0.00,,,0.00,Wunderground v.1.15,2013-04-02 21:18:00,
2013-04-02 17:23:00,28.4,13.0,29.99,NW,314,8.0,24.0,52,0.00,,,0.00,Wunderground v.1.15,2013-04-02 21:23:00,
2013-04-02 17:29:00,28.1,14.4,29.98,SW,215,8.0,24.0,56,0.00,,,0.00,Wunderground v.1.15,2013-04-02 21:29:00,
2013-04-02 17:34:00,28.4,13.9,29.98,WNW,287,8.0,24.0,54,0.00,,,0.00,Wunderground v.1.15,2013-04-02 21:34:00,
2013-04-02 17:40:00,28.4,14.7,29.98,West,262,6.0,6.0,56,0.00,,,0.00,Wunderground v.1.15,2013-04-02 21:40:00,
2013-04-02 17:45:00,28.5,13.5,29.99,SW,222,6.0,24.0,53,0.00,,,0.00,Wunderground v.1.15,2013-04-02 21:45:00,
2013-04-02 17:50:00,27.9,13.4,29.99,WNW,285,7.0,7.0,54,0.00,,,0.00,Wunderground v.1.15,2013-04-02 21:50:00,
2013-04-02 17:56:00,27.7,14.0,29.99,WSW,249,7.0,24.0,56,0.00,,,0.00,Wunderground v.1.15,2013-04-02 21:56:00,
2013-04-02 18:01:00,28.2,14.5,29.99,West,274,6.0,24.0,56,0.00,,,0.00,Wunderground v.1.15,2013-04-02 22:01:00,
2013-04-02 18:06:00,28.0,13.5,29.99,NW,304,6.0,24.0,54,0.00,,,0.00,Wunderground v.1.15,2013-04-02 22:06:00,
2013-04-02 18:11:00,27.7,13.2,29.99,NW,308,7.0,24.0,54,0.00,,,0.00,Wunderground v.1.15,2013-04-02 22:11:00,
2013-04-02 18:16:00,27.9,13.8,30.00,NNW,332,7.0,24.0,55,0.00,,,0.00,Wunderground v.1.15,2013-04-02 22:16:00,
2013-04-02 18:21:00,28.4,14.3,30.00,West,281,6.0,12.0,55,0.00,,,0.00,Wunderground v.1.15,2013-04-02 22:21:00,
2013-04-02 18:27:00,28.0,13.5,30.00,WNW,287,6.0,24.0,54,0.00,,,0.00,Wunderground v.1.15,2013-04-02 22:27:00,
2013-04-02 18:33:00,27.7,13.6,30.00,WNW,297,7.0,24.0,55,0.00,,,0.00,Wunderground v.1.15,2013-04-02 22:33:00,
2013-04-02 18:38:00,27.7,13.2,30.01,WNW,282,7.0,24.0,54,0.00,,,0.00,Wunderground v.1.15,2013-04-02 22:38:00,
2013-04-02 18:43:00,27.6,13.5,30.00,West,276,6.0,24.0,55,0.00,,,0.00,Wunderground v.1.15,2013-04-02 22:43:00,
2013-04-02 18:48:00,27.4,14.1,30.00,SSW,204,6.0,24.0,57,0.00,,,0.00,Wunderground v.1.15,2013-04-02 22:48:00,
2013-04-02 18:53:00,27.0,13.8,30.01,WNW,299,6.0,24.0,57,0.00,,,0.00,Wunderground v.1.15,2013-04-02 22:53:00,
2013-04-02 18:58:00,26.8,13.2,30.01,West,271,6.0,24.0,56,0.00,,,0.00,Wunderground v.1.15,2013-04-02 22:58:00,
2013-04-02 19:04:00,26.7,13.1,30.01,West,267,7.0,24.0,56,0.00,,,0.00,Wunderground v.1.15,2013-04-02 23:04:00,
2013-04-02 19:09:00,26.7,13.1,30.01,NW,319,8.0,24.0,56,0.00,,,0.00,Wunderground v.1.15,2013-04-02 23:09:00,
2013-04-02 19:14:00,26.6,13.8,30.01,NW,318,7.0,24.0,58,0.00,,,0.00,Wunderground v.1.15,2013-04-02 23:14:00,
2013-04-02 19:19:00,26.5,14.1,30.01,NW,308,5.0,24.0,59,0.00,,,0.00,Wunderground v.1.15,2013-04-02 23:19:00,
2013-04-02 19:24:00,26.3,14.3,30.01,NW,315,4.0,24.0,60,0.00,,,0.00,Wunderground v.1.15,2013-04-02 23:24:00,
2013-04-02 19:30:00,26.1,14.5,30.01,West,271,4.0,24.0,61,0.00,,,0.00,Wunderground v.1.15,2013-04-02 23:30:00,
2013-04-02 19:35:00,25.9,14.7,30.01,West,281,5.0,24.0,62,0.00,,,0.00,Wunderground v.1.15,2013-04-02 23:35:00,
2013-04-02 19:40:00,25.9,14.3,30.02,West,270,4.0,24.0,61,0.00,,,0.00,Wunderground v.1.15,2013-04-02 23:40:00,
2013-04-02 19:45:00,25.9,14.7,30.02,WNW,288,5.0,24.0,62,0.00,,,0.00,Wunderground v.1.15,2013-04-02 23:45:00,
2013-04-02 19:50:00,25.8,15.6,30.03,WNW,293,7.0,24.0,65,0.00,,,0.00,Wunderground v.1.15,2013-04-02 23:50:00,
2013-04-02 19:55:00,25.8,15.6,30.03,WNW,291,7.0,24.0,65,0.00,,,0.00,Wunderground v.1.15,2013-04-02 23:55:00,
2013-04-02 20:01:00,25.8,15.6,30.03,WNW,303,6.0,24.0,65,0.00,,,0.00,Wunderground v.1.15,2013-04-03 00:01:00,
2013-04-02 20:07:00,25.6,15.5,30.03,WNW,293,5.0,24.0,65,0.00,,,0.00,Wunderground v.1.15,2013-04-03 00:07:00,
2013-04-02 20:12:00,25.4,15.6,30.03,NNW,328,5.0,24.0,66,0.00,,,0.00,Wunderground v.1.15,2013-04-03 00:12:00,
2013-04-02 20:17:00,25.3,15.5,30.03,West,278,7.0,24.0,66,0.00,,,0.00,Wunderground v.1.15,2013-04-03 00:17:00,
2013-04-02 20:23:00,25.3,15.5,30.03,WNW,287,7.0,24.0,66,0.00,,,0.00,Wunderground v.1.15,2013-04-03 00:23:00,
2013-04-02 20:28:00,25.0,16.9,30.04,NNW,335,7.0,24.0,71,0.00,,,0.00,Wunderground v.1.15,2013-04-03 00:28:00,
2013-04-02 20:33:00,24.1,19.1,30.05,WNW,293,9.0,24.0,81,0.00,,,0.00,Wunderground v.1.15,2013-04-03 00:33:00,
2013-04-02 20:39:00,22.9,19.6,30.05,WNW,288,7.0,24.0,87,0.00,,,0.00,Wunderground v.1.15,2013-04-03 00:39:00,
2013-04-02 20:44:00,22.7,19.4,30.04,West,281,5.0,24.0,87,0.00,,,0.00,Wunderground v.1.15,2013-04-03 00:44:00,
2013-04-02 20:50:00,22.8,19.0,30.05,SSE,164,6.0,24.0,85,0.00,,,0.00,Wunderground v.1.15,2013-04-03 00:50:00,
2013-04-02 20:55:00,22.9,18.5,30.04,WSW,255,6.0,24.0,83,0.00,,,0.00,Wunderground v.1.15,2013-04-03 00:55:00,
2013-04-02 21:02:00,23.0,18.3,30.04,WSW,249,4.0,24.0,82,0.00,,,0.00,Wunderground v.1.15,2013-04-03 01:02:00,
2013-04-02 21:07:00,23.2,17.9,30.04,NW,304,4.0,24.0,80,0.00,,,0.00,Wunderground v.1.15,2013-04-03 01:07:00,
2013-04-02 21:12:00,23.4,17.6,30.04,WSW,238,5.0,9.0,78,0.00,,,0.00,Wunderground v.1.15,2013-04-03 01:12:00,
2013-04-02 21:18:00,23.6,17.1,30.05,WNW,295,5.0,24.0,76,0.00,,,0.00,Wunderground v.1.15,2013-04-03 01:18:00,
2013-04-02 21:24:00,23.6,17.1,30.06,West,259,5.0,24.0,76,0.00,,,0.00,Wunderground v.1.15,2013-04-03 01:24:00,
2013-04-02 21:30:00,23.7,17.2,30.05,West,263,4.0,24.0,76,0.00,,,0.00,Wunderground v.1.15,2013-04-03 01:30:00,
2013-04-02 21:35:00,23.7,17.5,30.06,West,263,5.0,24.0,77,0.00,,,0.00,Wunderground v.1.15,2013-04-03 01:35:00,
2013-04-02 21:40:00,23.7,17.5,30.06,North,4,6.0,6.0,77,0.00,,,0.00,Wunderground v.1.15,2013-04-03 01:40:00,
2013-04-02 21:46:00,23.7,17.5,30.06,West,273,6.0,24.0,77,0.00,,,0.00,Wunderground v.1.15,2013-04-03 01:46:00,
2013-04-02 21:51:00,23.7,17.5,30.06,West,280,7.0,24.0,77,0.00,,,0.00,Wunderground v.1.15,2013-04-03 01:51:00,
2013-04-02 21:56:00,23.6,17.4,30.06,WNW,295,6.0,24.0,77,0.00,,,0.00,Wunderground v.1.15,2013-04-03 01:56:00,
2013-04-02 22:02:00,23.6,17.4,30.06,West,259,6.0,24.0,77,0.00,,,0.00,Wunderground v.1.15,2013-04-03 02:02:00,
2013-04-02 22:07:00,23.7,17.5,30.06,SSW,198,5.0,24.0,77,0.00,,,0.00,Wunderground v.1.15,2013-04-03 02:07:00,
2013-04-02 22:12:00,23.9,17.4,30.06,SW,225,6.0,24.0,76,0.00,,,0.00,Wunderground v.1.15,2013-04-03 02:12:00,
2013-04-02 22:18:00,23.9,17.4,30.06,West,276,6.0,24.0,76,0.00,,,0.00,Wunderground v.1.15,2013-04-03 02:18:00,
2013-04-02 22:23:00,24.0,17.2,30.06,West,280,6.0,24.0,75,0.00,,,0.00,Wunderground v.1.15,2013-04-03 02:23:00,
2013-04-02 22:29:00,24.0,17.2,30.06,West,259,7.0,24.0,75,0.00,,,0.00,Wunderground v.1.15,2013-04-03 02:29:00,
2013-04-02 22:34:00,24.1,17.3,30.06,WNW,302,6.0,24.0,75,0.00,,,0.00,Wunderground v.1.15,2013-04-03 02:34:00,
2013-04-02 22:40:00,24.0,17.2,30.06,WSW,255,5.0,24.0,75,0.00,,,0.00,Wunderground v.1.15,2013-04-03 02:40:00,
2013-04-02 22:45:00,23.9,17.1,30.07,West,269,4.0,24.0,75,0.00,,,0.00,Wunderground v.1.15,2013-04-03 02:45:00,
2013-04-02 22:50:00,23.9,16.8,30.07,WNW,298,5.0,24.0,74,0.00,,,0.00,Wunderground v.1.15,2013-04-03 02:50:00,
2013-04-02 22:55:00,23.9,16.8,30.06,West,281,7.0,24.0,74,0.00,,,0.00,Wunderground v.1.15,2013-04-03 02:55:00,
2013-04-02 23:00:00,24.0,17.2,30.06,West,280,7.0,24.0,75,0.00,,,0.00,Wunderground v.1.15,2013-04-03 03:00:00,
2013-04-02 23:05:00,24.0,16.9,30.07,WNW,297,7.0,24.0,74,0.00,,,0.00,Wunderground v.1.15,2013-04-03 03:05:00,
2013-04-02 23:11:00,23.9,16.5,30.06,NW,326,6.0,24.0,73,0.00,,,0.00,Wunderground v.1.15,2013-04-03 03:11:00,
2013-04-02 23:17:00,23.8,16.4,30.06,West,269,6.0,24.0,73,0.00,,,0.00,Wunderground v.1.15,2013-04-03 03:17:00,
2013-04-02 23:22:00,23.7,16.3,30.06,West,278,6.0,24.0,73,0.00,,,0.00,Wunderground v.1.15,2013-04-03 03:22:00,
2013-04-02 23:27:00,23.5,16.1,30.06,West,266,5.0,24.0,73,0.00,,,0.00,Wunderground v.1.15,2013-04-03 03:27:00,
2013-04-02 23:34:00,23.4,15.7,30.06,WNW,295,5.0,24.0,72,0.00,,,0.00,Wunderground v.1.15,2013-04-03 03:34:00,
2013-04-02 23:39:00,23.4,15.7,30.07,WNW,298,5.0,24.0,72,0.00,,,0.00,Wunderground v.1.15,2013-04-03 03:39:00,
2013-04-02 23:44:00,23.5,15.1,30.07,WNW,295,5.0,24.0,70,0.00,,,0.00,Wunderground v.1.15,2013-04-03 03:44:00,
2013-04-02 23:50:00,23.5,15.1,30.07,WSW,238,5.0,5.0,70,0.00,,,0.00,Wunderground v.1.15,2013-04-03 03:50:00,
2013-04-02 23:55:00,23.5,14.8,30.07,WSW,255,5.0,24.0,69,0.00,,,0.00,Wunderground v.1.15,2013-04-03 03:55:00,